Location: Central Falls
(41.8900°N, 71.3929°W)
Time: 03:57:01
(UTC+00:00)

Vanguard 2 - Pass Details

Date: 10 December 2023
Orbit: 554 x 2918 km, 32.9° (Epoch: 01 March)

Event Time Altitude Azimuth Distance (km) Brightness Sun altitude
Rises 05:02:43 0° 275° (W) 6,667 12.3 -70.3°
Enters shadow 05:03:27 - 275° (W) 6,495 12.2 -70.3°
Reaches altitude 10° 05:07:44 10° 270° (W) 5,474 - -70.0°
Maximum altitude 05:21:46 42° 208° (SSW) 2,756 - -68.9°
Drops below altitude 10° 05:31:09 10° 141° (SE) 3,698 - -68.0°
Sets 05:33:53 0° 134° (SE) 4,390 - -67.7°
